Regional Weather Roundup
Issued by NWS Pendleton, OR

Home | Current Version | Previous Version | Text Only | Print | Product List | Glossary On
Versions: 1 2 3 4 5 6 7 8 9 10 11 12 13 14 15 16 17 18 19 20 21 22 23 24 25 26 27 28 29 30 31 32 33 34 35 36 37 38 39 40 41 42 43 44 45 46 47 48 49 50
000
ASUS46 KPDT 242025
RWRPDT
PENDLETON REGIONAL WEATHER ROUNDUP
NATIONAL WEATHER SERVICE PENDLETON OREGON
100 PM PDT SUN MAY 24 2015

NOTE: FAIR INDICATES FEW OR NO CLOUDS BELOW 12,000 FEET WITH NO
SIGNIFICANT WEATHER AND/OR OBSTRUCTIONS TO VISIBILITY.

# INDICATES UNOFFICIAL STATION AND DATA

WAZ520-242110-
EAST SLOPES OF WASHINGTON CASCADES

CITY            SKY/WX      TMP DP  RH  WIND    PRES   REMARKS
#BUMPING DAM    N/A         61  N/A N/A S2      N/A
#CLE ELUM HS    N/A         63  48  58  SW6     29.95F
#CLE ELUM LAKE  N/A         63  51  65  W1      29.91F
#CLIFFDEL 2NW   N/A         63  45  52  W7      N/A
#GLENWOOD       N/A         70  58  66  S7      29.91F
#MANASTASH CYN  N/A         67  51  56  CALM    29.94F
#NELSON         N/A         62  50  65  W1      29.96S
#NELSON 3SW     N/A         63  49  60  N1      30.13F
#NILE           N/A         70  49  47  W5      29.17F
#RONALD 2NW     N/A         62  44  52  SW2     29.87F
#SNOWDEN        N/A         61  38  42  S3      N/A
#TEANAWAY 4NE   N/A         66  55  68  SW6     N/A
#TROUT LAKE 1NE N/A         67  52  59  W9      29.94F
$$

WAZ521-242110-
SIMCOE HIGHLANDS

CITY            SKY/WX      TMP DP  RH  WIND    PRES   REMARKS
#CENTERVILLE 4W N/A         68  51  55  W13     29.72F
#CENTERVILLE 1SWN/A         67  50  54  W15     29.89F
#GOLDENDALE     N/A         69  51  53  W7      N/A
#GOLDENDALE 1NE N/A         69  39  33  CALM    N/A
#GOLDENDALE 5WNWN/A         68  53  59  SW12    29.90F
#GOODNOE HILLS  N/A         75  52  45  W15     N/A
#LYLE 6NE       N/A         62  50  65  S13     29.94F
$$

WAZ026-242110-
KITTITAS VALLEY

CITY            SKY/WX      TMP DP  RH  WIND    PRES   REMARKS
ELLENSBURG AP   CLOUDY      75  51  43  NW16G25 29.94F
YTC-OPS AREA    N/A         70  42  36  NW13    29.95F
#ELLENSBURG CWU N/A         72  51  48  NW13    29.83F
#ELLENSBURG 3NE N/A         69  55  61  N7      29.94F
#KITTITAS 3S    N/A         70  56  61  NW5     29.86F
#THORP 6N       N/A         63  50  62  NW13    29.92F
$$

WAZ027-242110-
YAKIMA VALLEY

CITY            SKY/WX      TMP DP  RH  WIND    PRES   REMARKS
SUNNYSIDE AP    PTCLDY      76  50  40  SE3     29.90F
YAKIMA AIRPORT  MOCLDY      81  48  32  CALM    29.91F
#DONALD 2NE     N/A         83  33  17  SE1     28.76F
#GRANDVIEW      N/A         76  50  40  CALM    29.88F
#MABTON         N/A         78  57  48  N2      29.88F
#NACHES 2SW     N/A         76  53  45  E1      29.97S
#OUTLOOK DOT    N/A         N/A N/A N/A E5      N/A
#SELAH 8E       N/A         77  46  33  NW5     N/A
#TERRACE HTS    N/A         78  51  39  S1      29.82F
#TOPPENISH      N/A         74  52  46  CALM    29.80F
#WAPATO 4NE     N/A         83  33  17  SE1     28.76F
#WEST VALLEY    N/A         76  51  42  E1      29.84F
#WHITE SWAN 5E  N/A         76  54  46  N3      29.86F
#WILEY CITY 3W  N/A         78  48  35  E1      29.88F
$$

WAZ028-242110-
LOWER COLUMBIA BASIN...WASHINGTON

CITY            SKY/WX      TMP DP  RH  WIND    PRES   REMARKS
HANFORD         CLOUDY      79  47  32  NW3     29.90F
PASCO           SUNNY       76  52  43  SW3     29.92F
RICHLAND AWOS   PTCLDY      77  54  45  CALM    29.91F
#BASIN CITY 5SW N/A         75  57  54  CALM    29.91F
#BENTON CITY    N/A         76  54  46  CALM    29.79F
#CONNELL 5N     N/A         76  53  45  SW2     29.88F
#CONNELL 5NW    N/A         73  55  53  S3      29.85F
#ELTOPIA        N/A         79  56  45  CALM    29.85F
#ELTOPIA 6NW    N/A         72  55  55  S2      28.90F
#KAHLOTUS       N/A         74  52  46  W6      29.88F
#KENNEWICK 3S   N/A         76  55  48  S2      29.90F
#PASCO-BROADMOORN/A         81  54  39  CALM    29.78F
#PATERSON       N/A         74  51  44  S3      29.88F
#PROSSER        N/A         77  48  36  SE1     29.88F
#SAGEMOOR 2W    N/A         78  59  52  CALM    29.75F
#TOUCHET 2S     N/A         77  56  48  NW1     29.87F
#WEST PASCO     N/A         80  59  49  S2      29.89F
$$

WAZ029-242110-
FOOTHILLS OF THE BLUES...WASHINGTON

CITY            SKY/WX      TMP DP  RH  WIND    PRES   REMARKS
WALLA WALLA AP  SUNNY       74  50  43  VRB7    29.94F
#DAYTON SCHOOL  N/A         72  48  43  S2      29.96F
#LOWDEN 2SE     N/A         76  57  52  W2      29.88F
#PLEASANT VIEW 1N/A         73  55  53  S3      29.93F
#PRESCOTT       N/A         76  56  50  CALM    29.88F
#SUDBURY        N/A         75  N/A N/A CALM    N/A
#WHITMAN COLLEGEN/A         72  54  53  SW3     29.95F
#WAITSBURG 8N   N/A         76  29  18  NE2     29.79F
#WALLA WALLA U  N/A         75  55  50  CALM    29.89F
#WHITMAN MISSIONN/A         74  55  51  NW1     29.91F
$$

WAZ030-242110-
BLUE MOUNTAINS...WASHINGTON

CITY            SKY/WX      TMP DP  RH  WIND    PRES   REMARKS
#DIXIE 5SE      N/A         64  52  65  SW3     29.93F
$$

ORZ009-041-WAZ024-242110-
COLUMBIA RIVER GORGE

CITY            SKY/WX      TMP DP  RH  WIND    PRES   REMARKS
HOOD RIVER AP   PTCLDY      64  48  56  NW14    30.01F
THE DALLES AP   PTCLDY      70  49  47  NW24G32 29.96F
#ARLINGTON AIRPON/A         75  51  43  SW12    N/A
#CELILO DOT     N/A         75  51  43  W10     N/A
#MOSIER 1S      N/A         63  40  43  W8      29.97F
#MURDOCK        N/A         67  52  59  NW20G33 29.96F
#RUFUS DOT      N/A         74  51  44  NW5     N/A

$$

ORZ510-242110-
NORTH CENTRAL OREGON

CITY            SKY/WX      TMP DP  RH  WIND    PRES   REMARKS
#CHENOWITH 1W   N/A         61  47  60  W31     N/A
#COW CYN RST AREN/A         70  55  59  S2      N/A
#DUFUR 9E       N/A         61  50  67  NW15    30.00F
#GRASS VALLEY 1SN/A         71  51  49  N7      29.95F
#KENT DOT       N/A         70  40  34  NW8     N/A
#MAUPIN SCHOOL  N/A         77  54  45  CALM    29.95F
#MORO SCHOOL    N/A         66  55  68  W9      29.99F
#SHANIKO 5WSW   N/A         68  38  33  W6      N/A
#SHANIKO 4NW    N/A         65  46  50  W3      30.02F
#TYGH VALLEY 2NEN/A         73  54  51  SW1     29.91F
#WAPANITIA AIRPON/A         72  51  48  CALM    29.94F
#WASCO DOT      N/A         72  47  41  W12     N/A
#WASCO 5NE      N/A         70  48  46  SW9     29.93F
$$

ORZ511-242110-
CENTRAL OREGON

CITY            SKY/WX      TMP DP  RH  WIND    PRES   REMARKS
BEND AIRPORT    SUNNY       68  43  40  N6      30.00F
MADRAS AIRPORT  SUNNY       70  48  46  CALM    30.01F
PRINEVILLE AP   SUNNY       70  48  46  W8      29.99F
#BEND 1SW       N/A         70  47  44  NE3     N/A
#BEND-AWBREY    N/A         71  49  46  NE1     29.93F
#BEND-KIM LN    N/A         72  49  44  VRB2    29.98F
#CROOKED RVR RANN/A         69  51  53  NE2     29.93F
#CULVER         N/A         70  53  55  N2      29.95F
#LAKE BILLY CHINN/A         71  12  10  N1      30.04F
#POWELL BUTTE 3EN/A         63  50  62  NW5     N/A
#POWELL BUTTE   N/A         73  55  53  N2      29.64F
#PRINEVILLE 3N  N/A         72  58  61  SW6     29.87
#WARM SPRINGS   N/A         76  51  42  W5      29.93F

$$


ORZ509-242110-
EAST SLOPES OF OREGON CASCADES

CITY            SKY/WX      TMP DP  RH  WIND    PRES   REMARKS
#BLUE BOX PASS  N/A         53   0  11  S1      N/A
#CAMP SHERMAN   N/A         73  51  46  S1      29.89F
#LA PINE 4NW    N/A         67  41  39  CALM    29.99F
#SISTERS AIRPOR N/A         72  56  57  VRB5    30.17S
#SISTERS ODOT   N/A         70  N/A N/A S3      N/A
#SISTERS 1NW    N/A         69  45  42  NW14    N/A
#SISTERS 3N     N/A         70  50  49  CALM    30.01S
#SUNRIVER       N/A         68  44  42  W1      29.84F
#TUMALO 3W      N/A         69  45  42  N5      29.82F
#WANOGA BUTTE D N/A         56  40  55  E3      N/A

$$

ORZ044-242110-
LOWER COLUMBIA BASIN...OREGON

CITY            SKY/WX      TMP DP  RH  WIND    PRES   REMARKS
HERMISTON       SUNNY       76  48  37  VRB6    29.92F
#BOARDMAN SCHOOLN/A         77  51  40  W2      29.92F
#ECHO 8SW       N/A         76  51  42  SW2     29.93F
#IONE SCHOOL    N/A         72  49  44  W7      29.91F
#IRRIGON 4NW    N/A         77  49  37  W7      N/A
#UMATILLA SCHOOLN/A         79  60  52  N6      29.97F
#UMATILLA       N/A         76  53  45  N1      29.83F
$$

ORZ507-242110-
NORTHERN FOOTHILLS OF THE BLUES

CITY            SKY/WX      TMP DP  RH  WIND    PRES   REMARKS
PENDLETON AIRPT SUNNY       74  50  43  NW10    29.94F
#ADAMS 3WNW     N/A         70  55  59  S1      29.89F
#ATHENA         N/A         71  54  55  W2      29.92F
#CAYUSE         N/A         71  54  55  S5      29.90F
#HELIX SCHOOL   N/A         70  52  53  W6      29.90F
#HELIX 3N       N/A         70  49  47  SW6     29.93F
#HOLDMAN 6E     N/A         73  51  46  NE7     29.72F
#M-F FERNDALE   N/A         82  57  43  CALM    29.92F
#M-F GROVE ELEM N/A         75  49  40  W3      29.91F
#M-FREEWATER 5SEN/A         74  56  53  SW1     29.93F
#PENDLETON DNTN N/A         77  46  33  SW2     29.93F
#PDT AQUATIC CTRN/A         74  54  50  SW3     29.95F
#PENDLETON 5NE  N/A         73  53  49  NW1     29.91F
#PDT SUNRIDGE   N/A         75  52  45  W2      29.94F
#PENDLETON 7NW  N/A         75  56  52  SW3     29.87F
#PILOT ROCK     N/A         72  53  51  CALM    29.97F
#TUTUILLA       N/A         73  52  48  N3      29.92F
#UMAPINE 2E     N/A         75  58  56  N1      29.89F
#WESTON SCHOOL  N/A         69  50  51  N1      29.92F

$$

ORZ508-242110-
SOUTHERN FOOTHILLS OF THE BLUES

CITY            SKY/WX      TMP DP  RH  WIND    PRES   REMARKS
#AJAX           N/A         71  45  39  W6      29.91F
#CONDON 5W      N/A         69  46  44  W7      29.98F
#FOSSIL SCHOOL  N/A         69  51  53  W2      29.96F
#HEPPNER EOC    N/A         72  51  48  N7      29.85F
#HEPPNER 4NE    N/A         68  50  53  W7      29.91F
#LEXINGTON 2SE  N/A         74  52  46  CALM    29.92F
#RUGGS 5NE      N/A         73  49  43  NW6     30.14F
#RUGGS 2SW      N/A         71  50  47  NW5     29.92F

$$

ORZ502-503-242110-
BLUE MOUNTAINS

CITY            SKY/WX      TMP DP  RH  WIND    PRES   REMARKS
MEACHAM         MOCLDY      65  51  60  VRB6    30.00F
#BATTLE MTN DOT N/A         63  53  70  NE2     N/A
#HEPPNER 15SE   N/A         64  53  67  W1      29.93F
#LADD CYN SMT   N/A         68  39  35  NW9     N/A
#LONG CREEK HS  N/A         65  51  60  CALM    29.96F
#N POWDER DOT   N/A         71  47  42  N16     N/A
#PIKES PEAK     N/A         59  50  72  SW8     27.99S
#TOLLGATE       N/A         57  51  80  N2      29.97F
#TROY SCHOOL    N/A         77  53  43  CALM    29.68F
#UKIAH          N/A         67  52  59  N10     29.93F
#WESTON 4E      N/A         64  53  67  SW2     29.86F
$$

ORZ505-242110-
JOHN DAY BASIN

CITY            SKY/WX      TMP DP  RH  WIND    PRES   REMARKS
JOHN DAY        PTCLDY      70  51  51  SW6     29.98F
#JOHN DAY KJDY  N/A         74  55  51  S1      30.01F
#DAYVILLE SCHOOLN/A         74  47  38  W6      29.92F
#MITCHELL       N/A         71  54  55  W1      30.12F
#MONUMENT HS    N/A         73  49  43  CALM    29.95F
#MT. VERNON 5SE N/A         68  51  55  N2      29.95F
$$

ORZ506-242110-
OCHOCO AND JOHN DAY HIGHLANDS

CITY            SKY/WX      TMP DP  RH  WIND    PRES   REMARKS
#BUCK CREEK DOT N/A         68  68  100 N8      N/A
#PAULINA SCHOOL N/A         69  49  49  W6      29.96F
#PINE MTN OBS   N/A         56  41  57  N1      N/A
#PRAIRIE CITY   N/A         71  56  59  S1      29.82F
#SENECA         N/A         65  N/A N/A NW8     N/A
#SENECA 9NW     N/A         66  47  50  S2      29.88F
$$

ORZ049-242110-
GRANDE RONDE VALLEY

CITY            SKY/WX      TMP DP  RH  WIND    PRES   REMARKS
LA GRANDE       PTCLDY      73  45  37  N8      29.93F
#COVE           N/A         73  54  51  NW12    29.93F
#COVE SCHOOL    N/A         74  49  41  N2      29.91F
#ELGIN 3N       N/A         72  46  39  N5      29.92F
#ELGIN 1E       N/A         74  49  41  W3      N/A
#ISLAND CITY 4N N/A         61  53  75  CALM    30.11F
#LADD CYN DOT   N/A         72  45  38  W8      N/A
#LA GRANDE ELEM N/A         71  49  46  NW6     29.95F
#UNION 1S       N/A         72  51  48  N9      29.77F
$$

ORZ050-242110-
WALLOWA COUNTY

CITY            SKY/WX      TMP DP  RH  WIND    PRES   REMARKS
JOSEPH AIRPORT  N/A         66  43  43  CALM    30.01F
#ENTERPRISE HS  N/A         68  48  49  NW2     29.99F
#IMNAHA SCHOOL  N/A         75  47  37  N5      29.91F
#IMNAHA 10S     N/A         70  49  47  E2      29.94F
#JOSEPH 3N      N/A         65  45  48  NE1     30.01F
#JOSEPH 3W      N/A         62  42  48  SE1     29.86F
#LOSTINE        N/A         71  46  41  SE1     29.67F
#MT HOWARD 8000 N/A         44  39  82  N5      30.13F
#PROMISE 1S     N/A         67  47  49  SW6     29.97F
#SHEEP RDG 7000 N/A         48  40  74  CALM    29.95F
#WALLOWA SCHOOL N/A         73  45  37  CALM    30.75F



$$



USA.gov is the U.S. government's official web portal to all federal, state and local government web resources and services.